Time,TemperatureF,DewpointF,PressureIn,WindDirection,WindDirectionDegrees,WindSpeedMPH,WindSpeedGustMPH,Humidity,HourlyPrecipIn,Conditions,Clouds,dailyrainin,SoftwareType,DateUTC
2014-01-02 00:03:00,46.2,42.5,29.95,South,169,0.0,1.0,87,0.00,,,0.00,Wunderground v.1.15,2014-01-02 06:03:00,
2014-01-02 00:09:00,46.0,42.3,29.94,South,169,0.0,1.0,87,0.00,,,0.00,Wunderground v.1.15,2014-01-02 06:09:00,
2014-01-02 00:15:00,46.0,42.6,29.94,South,169,0.0,0.0,88,0.00,,,0.00,Wunderground v.1.15,2014-01-02 06:15:00,
2014-01-02 00:20:00,46.1,42.7,29.94,South,169,0.0,0.0,88,0.00,,,0.00,Wunderground v.1.15,2014-01-02 06:20:00,
2014-01-02 00:26:00,46.1,42.7,29.94,South,169,0.0,1.0,88,0.00,,,0.00,Wunderground v.1.15,2014-01-02 06:26:00,
2014-01-02 00:31:00,46.2,42.8,29.94,South,183,1.0,1.0,88,0.00,,,0.00,Wunderground v.1.15,2014-01-02 06:31:00,
2014-01-02 00:37:00,46.4,43.3,29.93,South,183,0.0,1.0,89,0.00,,,0.00,Wunderground v.1.15,2014-01-02 06:37:00,
2014-01-02 00:43:00,46.4,43.3,29.93,South,183,1.0,1.0,89,0.00,,,0.00,Wunderground v.1.15,2014-01-02 06:43:00,
2014-01-02 00:48:00,46.5,43.4,29.93,South,183,0.0,1.0,89,0.00,,,0.00,Wunderground v.1.15,2014-01-02 06:48:00,
2014-01-02 00:54:00,46.6,43.5,29.93,South,183,0.0,0.0,89,0.00,,,0.00,Wunderground v.1.15,2014-01-02 06:54:00,
2014-01-02 01:00:00,46.7,43.6,29.93,South,183,1.0,1.0,89,0.00,,,0.00,Wunderground v.1.15,2014-01-02 07:00:00,
2014-01-02 01:06:00,46.9,44.1,29.93,SSW,197,1.0,1.0,90,0.00,,,0.00,Wunderground v.1.15,2014-01-02 07:06:00,
2014-01-02 01:08:00,47.0,44.2,29.93,SSE,168,0.0,1.0,90,0.00,,,0.00,Wunderground v.1.15,2014-01-02 07:08:00,
2014-01-02 01:14:00,47.1,44.3,29.92,SSE,168,0.0,1.0,90,0.00,,,0.00,Wunderground v.1.15,2014-01-02 07:14:00,
2014-01-02 01:20:00,47.3,44.5,29.92,South,186,1.0,3.0,90,0.00,,,0.00,Wunderground v.1.15,2014-01-02 07:20:00,
2014-01-02 01:25:00,47.5,44.7,29.92,SSW,196,2.0,4.0,90,0.00,,,0.00,Wunderground v.1.15,2014-01-02 07:25:00,
2014-01-02 01:30:00,47.7,44.9,29.91,SSE,159,0.0,4.0,90,0.00,,,0.00,Wunderground v.1.15,2014-01-02 07:30:00,
2014-01-02 01:36:00,47.9,45.1,29.91,SW,225,0.0,2.0,90,0.00,,,0.00,Wunderground v.1.15,2014-01-02 07:36:00,
2014-01-02 01:41:00,47.9,45.1,29.91,WSW,254,0.0,1.0,90,0.00,,,0.00,Wunderground v.1.15,2014-01-02 07:41:00,
2014-01-02 01:46:00,48.2,45.4,29.92,SW,229,0.0,2.0,90,0.00,,,0.00,Wunderground v.1.15,2014-01-02 07:46:00,
2014-01-02 01:52:00,48.6,45.8,29.92,West,275,2.0,2.0,90,0.00,,,0.00,Wunderground v.1.15,2014-01-02 07:52:00,
2014-01-02 01:58:00,48.9,46.1,29.92,WSW,237,2.0,2.0,90,0.00,,,0.00,Wunderground v.1.15,2014-01-02 07:58:00,
2014-01-02 02:03:00,48.9,46.1,29.91,WSW,237,0.0,2.0,90,0.00,,,0.00,Wunderground v.1.15,2014-01-02 08:03:00,
2014-01-02 02:08:00,49.0,46.2,29.91,WSW,246,4.0,4.0,90,0.00,,,0.00,Wunderground v.1.15,2014-01-02 08:08:00,
2014-01-02 02:13:00,49.0,46.2,29.91,SW,233,1.0,1.0,90,0.00,,,0.00,Wunderground v.1.15,2014-01-02 08:13:00,
2014-01-02 02:18:00,49.0,46.2,29.91,SW,233,0.0,1.0,90,0.00,,,0.00,Wunderground v.1.15,2014-01-02 08:18:00,
2014-01-02 02:23:00,48.9,46.1,29.91,SW,233,0.0,1.0,90,0.00,,,0.00,Wunderground v.1.15,2014-01-02 08:23:00,
2014-01-02 02:28:00,48.8,46.3,29.91,SW,233,0.0,1.0,91,0.00,,,0.00,Wunderground v.1.15,2014-01-02 08:28:00,
2014-01-02 02:33:00,48.6,46.4,29.91,SW,233,0.0,0.0,92,0.00,,,0.00,Wunderground v.1.15,2014-01-02 08:33:00,
2014-01-02 02:38:00,48.3,46.1,29.91,SW,233,0.0,0.0,92,0.00,,,0.00,Wunderground v.1.15,2014-01-02 08:38:00,
2014-01-02 02:44:00,48.1,46.2,29.91,SW,233,0.0,0.0,93,0.00,,,0.00,Wunderground v.1.15,2014-01-02 08:44:00,
2014-01-02 02:49:00,48.0,46.1,29.91,SW,233,0.0,0.0,93,0.00,,,0.00,Wunderground v.1.15,2014-01-02 08:49:00,
2014-01-02 02:54:00,48.0,46.1,29.90,SW,233,0.0,0.0,93,0.00,,,0.00,Wunderground v.1.15,2014-01-02 08:54:00,
2014-01-02 02:59:00,47.8,46.2,29.90,SW,233,0.0,0.0,94,0.00,,,0.00,Wunderground v.1.15,2014-01-02 08:59:00,
2014-01-02 03:04:00,47.8,46.2,29.90,SW,233,0.0,0.0,94,0.00,,,0.00,Wunderground v.1.15,2014-01-02 09:04:00,
2014-01-02 03:10:00,47.5,45.9,29.91,SW,233,1.0,2.0,94,0.00,,,0.00,Wunderground v.1.15,2014-01-02 09:10:00,
2014-01-02 03:15:00,47.4,46.0,29.90,SW,233,0.0,0.0,95,0.00,,,0.00,Wunderground v.1.15,2014-01-02 09:15:00,
2014-01-02 03:20:00,47.3,45.9,29.90,SW,233,0.0,1.0,95,0.00,,,0.00,Wunderground v.1.15,2014-01-02 09:20:00,
2014-01-02 03:25:00,47.3,45.9,29.90,SW,233,0.0,0.0,95,0.00,,,0.00,Wunderground v.1.15,2014-01-02 09:25:00,
2014-01-02 03:30:00,47.2,45.8,29.90,SW,233,0.0,0.0,95,0.00,,,0.00,Wunderground v.1.15,2014-01-02 09:30:00,
2014-01-02 03:35:00,47.2,45.8,29.90,SW,233,0.0,0.0,95,0.00,,,0.00,Wunderground v.1.15,2014-01-02 09:35:00,
2014-01-02 03:41:00,47.2,45.8,29.90,SW,233,0.0,0.0,95,0.00,,,0.00,Wunderground v.1.15,2014-01-02 09:41:00,
2014-01-02 03:46:00,47.1,45.7,29.90,SW,233,0.0,1.0,95,0.00,,,0.00,Wunderground v.1.15,2014-01-02 09:46:00,
2014-01-02 03:52:00,47.1,45.7,29.90,SW,233,0.0,0.0,95,0.00,,,0.00,Wunderground v.1.15,2014-01-02 09:52:00,
2014-01-02 03:57:00,47.0,45.6,29.90,SW,233,0.0,1.0,95,0.00,,,0.00,Wunderground v.1.15,2014-01-02 09:57:00,
2014-01-02 04:02:00,47.0,45.6,29.90,SW,233,0.0,1.0,95,0.00,,,0.00,Wunderground v.1.15,2014-01-02 10:02:00,
2014-01-02 04:07:00,47.2,46.1,29.91,SW,233,2.0,3.0,96,0.00,,,0.00,Wunderground v.1.15,2014-01-02 10:07:00,
2014-01-02 04:12:00,47.2,46.1,29.91,SW,233,2.0,3.0,96,0.00,,,0.00,Wunderground v.1.15,2014-01-02 10:12:00,
2014-01-02 04:17:00,47.2,46.1,29.91,WNW,295,3.0,4.0,96,0.00,,,0.00,Wunderground v.1.15,2014-01-02 10:17:00,
2014-01-02 04:24:00,47.1,46.0,29.90,NNW,327,3.0,3.0,96,0.00,,,0.00,Wunderground v.1.15,2014-01-02 10:24:00,
2014-01-02 04:29:00,47.0,45.9,29.90,WNW,288,4.0,6.0,96,0.00,,,0.00,Wunderground v.1.15,2014-01-02 10:29:00,
2014-01-02 04:34:00,46.7,45.6,29.90,WNW,285,2.0,4.0,96,0.00,,,0.00,Wunderground v.1.15,2014-01-02 10:34:00,
2014-01-02 04:39:00,46.5,45.1,29.91,WNW,290,0.0,5.0,95,0.00,,,0.00,Wunderground v.1.15,2014-01-02 10:39:00,
2014-01-02 04:45:00,46.3,44.9,29.91,WNW,300,2.0,3.0,95,0.00,,,0.00,Wunderground v.1.15,2014-01-02 10:45:00,
2014-01-02 04:51:00,46.0,44.6,29.91,NW,312,12.0,12.0,95,0.00,,,0.00,Wunderground v.1.15,2014-01-02 10:51:00,
2014-01-02 04:56:00,45.7,44.1,29.91,WNW,301,5.0,5.0,94,0.00,,,0.00,Wunderground v.1.15,2014-01-02 10:56:00,
2014-01-02 05:01:00,45.3,43.7,29.91,NNW,331,3.0,6.0,94,0.00,,,0.00,Wunderground v.1.15,2014-01-02 11:01:00,
2014-01-02 05:06:00,45.1,43.5,29.92,WNW,302,2.0,6.0,94,0.00,,,0.00,Wunderground v.1.15,2014-01-02 11:06:00,
2014-01-02 05:11:00,44.7,43.1,29.92,WNW,301,2.0,3.0,94,0.00,,,0.00,Wunderground v.1.15,2014-01-02 11:11:00,
2014-01-02 05:16:00,44.4,42.5,29.93,West,273,2.0,5.0,93,0.00,,,0.00,Wunderground v.1.15,2014-01-02 11:16:00,
2014-01-02 05:22:00,44.0,42.1,29.94,West,263,4.0,6.0,93,0.00,,,0.00,Wunderground v.1.15,2014-01-02 11:22:00,
2014-01-02 05:27:00,43.6,41.7,29.95,WNW,297,3.0,7.0,93,0.00,,,0.00,Wunderground v.1.15,2014-01-02 11:27:00,
2014-01-02 05:32:00,43.2,41.3,29.95,WNW,298,2.0,7.0,93,0.00,,,0.00,Wunderground v.1.15,2014-01-02 11:32:00,
2014-01-02 05:37:00,42.6,40.4,29.96,North,355,3.0,7.0,92,0.00,,,0.00,Wunderground v.1.15,2014-01-02 11:37:00,
2014-01-02 05:42:00,41.8,39.4,29.96,NNW,338,3.0,6.0,91,0.00,,,0.00,Wunderground v.1.15,2014-01-02 11:42:00,
2014-01-02 05:47:00,41.0,38.6,29.97,NW,320,2.0,6.0,91,0.00,,,0.00,Wunderground v.1.15,2014-01-02 11:47:00,
2014-01-02 05:52:00,40.6,38.7,29.98,NW,304,4.0,4.0,93,0.00,,,0.00,Wunderground v.1.15,2014-01-02 11:52:00,
2014-01-02 05:58:00,40.1,38.0,29.98,WNW,295,2.0,7.0,92,0.00,,,0.00,Wunderground v.1.15,2014-01-02 11:58:00,
2014-01-02 06:03:00,39.8,37.9,29.98,NNW,342,2.0,3.0,93,0.00,,,0.00,Wunderground v.1.15,2014-01-02 12:03:00,
2014-01-02 06:08:00,39.4,37.3,29.99,NNW,333,0.0,4.0,92,0.00,,,0.00,Wunderground v.1.15,2014-01-02 12:08:00,
2014-01-02 06:13:00,38.9,36.8,29.99,WNW,303,3.0,8.0,92,0.00,,,0.00,Wunderground v.1.15,2014-01-02 12:13:00,
2014-01-02 06:18:00,37.8,35.4,30.00,North,355,3.0,10.0,91,0.00,,,0.00,Wunderground v.1.15,2014-01-02 12:18:00,
2014-01-02 06:23:00,37.1,35.0,30.00,NNW,338,2.0,4.0,92,0.00,,,0.00,Wunderground v.1.15,2014-01-02 12:23:00,
2014-01-02 06:28:00,36.6,34.5,30.01,WNW,297,6.0,6.0,92,0.00,,,0.00,Wunderground v.1.15,2014-01-02 12:28:00,
2014-01-02 06:33:00,36.0,33.9,30.01,NW,315,7.0,7.0,92,0.00,,,0.00,Wunderground v.1.15,2014-01-02 12:33:00,
2014-01-02 06:39:00,35.3,33.2,30.02,NNW,343,1.0,9.0,92,0.00,,,0.00,Wunderground v.1.15,2014-01-02 12:39:00,
2014-01-02 06:44:00,35.0,32.9,30.03,NNW,332,3.0,6.0,92,0.00,,,0.00,Wunderground v.1.15,2014-01-02 12:44:00,
2014-01-02 06:49:00,34.6,32.5,30.03,NNW,333,3.0,8.0,92,0.00,,,0.00,Wunderground v.1.15,2014-01-02 12:49:00,
2014-01-02 06:54:00,34.1,31.7,30.04,NW,308,10.0,10.0,91,0.00,,,0.00,Wunderground v.1.15,2014-01-02 12:54:00,
2014-01-02 06:59:00,33.7,31.6,30.05,NW,324,7.0,11.0,92,0.00,,,0.00,Wunderground v.1.15,2014-01-02 12:59:00,
2014-01-02 07:05:00,33.3,31.2,30.05,NNW,348,3.0,6.0,92,0.00,,,0.00,Wunderground v.1.15,2014-01-02 13:05:00,
2014-01-02 07:10:00,33.1,31.0,30.06,NW,321,3.0,6.0,92,0.00,,,0.00,Wunderground v.1.15,2014-01-02 13:10:00,
2014-01-02 07:15:00,33.0,30.9,30.06,NW,314,1.0,7.0,92,0.00,,,0.00,Wunderground v.1.15,2014-01-02 13:15:00,
2014-01-02 07:20:00,32.9,30.8,30.06,WNW,293,5.0,6.0,92,0.00,,,0.00,Wunderground v.1.15,2014-01-02 13:20:00,
2014-01-02 07:25:00,32.8,30.7,30.06,North,350,0.0,6.0,92,0.00,,,0.00,Wunderground v.1.15,2014-01-02 13:25:00,
2014-01-02 07:31:00,32.8,30.7,30.07,NNW,336,1.0,2.0,92,0.00,,,0.00,Wunderground v.1.15,2014-01-02 13:31:00,
2014-01-02 07:36:00,32.6,30.5,30.07,North,355,1.0,9.0,92,0.00,,,0.00,Wunderground v.1.15,2014-01-02 13:36:00,
2014-01-02 07:41:00,32.6,30.5,30.08,NW,325,4.0,6.0,92,0.00,,,0.00,Wunderground v.1.15,2014-01-02 13:41:00,
2014-01-02 07:47:00,32.4,30.1,30.09,WNW,300,3.0,8.0,91,0.00,,,0.00,Wunderground v.1.15,2014-01-02 13:47:00,
2014-01-02 07:52:00,32.3,29.7,30.09,NW,321,2.0,5.0,90,0.00,,,0.00,Wunderground v.1.15,2014-01-02 13:52:00,
2014-01-02 07:57:00,32.3,29.7,30.09,NW,319,3.0,8.0,90,0.00,,,0.00,Wunderground v.1.15,2014-01-02 13:57:00,
2014-01-02 08:02:00,32.2,29.6,30.11,WNW,284,6.0,7.0,90,0.00,,,0.00,Wunderground v.1.15,2014-01-02 14:02:00,
2014-01-02 08:08:00,31.7,29.1,30.11,West,278,2.0,8.0,90,0.00,,,0.00,Wunderground v.1.15,2014-01-02 14:08:00,
2014-01-02 08:13:00,31.3,29.0,30.12,WNW,288,5.0,5.0,91,0.00,,,0.00,Wunderground v.1.15,2014-01-02 14:13:00,
2014-01-02 08:18:00,31.1,28.8,30.12,NW,324,3.0,7.0,91,0.00,,,0.00,Wunderground v.1.15,2014-01-02 14:18:00,
2014-01-02 08:23:00,30.9,28.6,30.12,NW,309,2.0,4.0,91,0.00,,,0.00,Wunderground v.1.15,2014-01-02 14:23:00,
2014-01-02 08:29:00,30.7,28.4,30.13,NNW,336,4.0,8.0,91,0.00,,,0.00,Wunderground v.1.15,2014-01-02 14:29:00,
2014-01-02 08:34:00,30.6,28.3,30.13,NW,310,3.0,6.0,91,0.00,,,0.00,Wunderground v.1.15,2014-01-02 14:34:00,
2014-01-02 08:38:00,30.4,27.8,30.14,NW,325,3.0,8.0,90,0.00,,,0.00,Wunderground v.1.15,2014-01-02 14:38:00,
2014-01-02 08:43:00,30.3,27.7,30.14,WNW,283,6.0,8.0,90,0.00,,,0.00,Wunderground v.1.15,2014-01-02 14:43:00,
2014-01-02 08:49:00,30.1,27.8,30.15,NW,323,4.0,8.0,91,0.00,,,0.00,Wunderground v.1.15,2014-01-02 14:49:00,
2014-01-02 08:54:00,30.1,27.5,30.15,NNW,331,3.0,5.0,90,0.00,,,0.00,Wunderground v.1.15,2014-01-02 14:54:00,
2014-01-02 08:59:00,29.9,26.8,30.15,WNW,294,3.0,10.0,88,0.00,,,0.00,Wunderground v.1.15,2014-01-02 14:59:00,
2014-01-02 09:04:00,29.7,26.6,30.16,NW,305,0.0,8.0,88,0.00,,,0.00,Wunderground v.1.15,2014-01-02 15:04:00,
2014-01-02 09:09:00,29.5,25.8,30.16,NNW,328,3.0,9.0,86,0.00,,,0.00,Wunderground v.1.15,2014-01-02 15:09:00,
2014-01-02 09:14:00,29.3,25.6,30.17,North,355,5.0,9.0,86,0.00,,,0.00,Wunderground v.1.15,2014-01-02 15:14:00,
2014-01-02 09:19:00,29.1,25.4,30.17,NNE,16,3.0,9.0,86,0.00,,,0.00,Wunderground v.1.15,2014-01-02 15:19:00,
2014-01-02 09:24:00,29.1,25.7,30.18,NW,315,3.0,6.0,87,0.00,,,0.00,Wunderground v.1.15,2014-01-02 15:24:00,
2014-01-02 09:30:00,29.0,25.3,30.18,NW,317,0.0,6.0,86,0.00,,,0.00,Wunderground v.1.15,2014-01-02 15:30:00,
2014-01-02 09:35:00,29.0,25.3,30.19,WNW,292,6.0,6.0,86,0.00,,,0.00,Wunderground v.1.15,2014-01-02 15:35:00,
2014-01-02 09:41:00,28.8,24.9,30.19,NNW,346,5.0,5.0,85,0.00,,,0.00,Wunderground v.1.15,2014-01-02 15:41:00,
2014-01-02 09:46:00,28.8,24.9,30.19,WNW,299,3.0,7.0,85,0.00,,,0.00,Wunderground v.1.15,2014-01-02 15:46:00,
2014-01-02 09:51:00,28.8,24.6,30.19,NW,309,3.0,4.0,84,0.00,,,0.00,Wunderground v.1.15,2014-01-02 15:51:00,
2014-01-02 09:56:00,28.9,24.7,30.20,NNE,22,4.0,6.0,84,0.00,,,0.00,Wunderground v.1.15,2014-01-02 15:56:00,
2014-01-02 10:01:00,29.0,24.5,30.20,NW,319,3.0,3.0,83,0.00,,,0.00,Wunderground v.1.15,2014-01-02 16:01:00,
2014-01-02 10:07:00,29.1,24.9,30.20,NW,318,2.0,6.0,84,0.00,,,0.00,Wunderground v.1.15,2014-01-02 16:07:00,
2014-01-02 10:12:00,29.1,24.9,30.21,NNW,345,3.0,3.0,84,0.00,,,0.00,Wunderground v.1.15,2014-01-02 16:12:00,
2014-01-02 10:17:00,29.0,24.2,30.21,NW,321,8.0,15.0,82,0.00,,,0.00,Wunderground v.1.15,2014-01-02 16:17:00,
2014-01-02 10:22:00,28.8,24.0,30.21,North,349,3.0,4.0,82,0.00,,,0.00,Wunderground v.1.15,2014-01-02 16:22:00,
2014-01-02 10:28:00,29.2,24.4,30.21,NW,308,5.0,7.0,82,0.00,,,0.00,Wunderground v.1.15,2014-01-02 16:28:00,
2014-01-02 10:33:00,29.7,24.9,30.22,NW,312,6.0,9.0,82,0.00,,,0.00,Wunderground v.1.15,2014-01-02 16:33:00,
2014-01-02 10:38:00,29.9,24.5,30.21,NNW,328,4.0,9.0,80,0.00,,,0.00,Wunderground v.1.15,2014-01-02 16:38:00,
2014-01-02 10:43:00,30.1,24.7,30.21,NNW,334,3.0,6.0,80,0.00,,,0.00,Wunderground v.1.15,2014-01-02 16:43:00,
2014-01-02 10:48:00,30.6,25.5,30.21,NW,306,2.0,6.0,81,0.00,,,0.00,Wunderground v.1.15,2014-01-02 16:48:00,
2014-01-02 10:53:00,30.5,25.1,30.22,NW,310,3.0,5.0,80,0.00,,,0.00,Wunderground v.1.15,2014-01-02 16:53:00,
2014-01-02 10:58:00,30.3,24.6,30.22,WNW,294,5.0,6.0,79,0.00,,,0.00,Wunderground v.1.15,2014-01-02 16:58:00,
2014-01-02 11:03:00,30.4,25.3,30.22,NNW,330,5.0,9.0,81,0.00,,,0.00,Wunderground v.1.15,2014-01-02 17:03:00,
2014-01-02 11:08:00,30.8,25.1,30.22,NNW,330,3.0,9.0,79,0.00,,,0.00,Wunderground v.1.15,2014-01-02 17:08:00,
2014-01-02 11:13:00,31.3,26.1,30.22,NW,318,6.0,8.0,81,0.00,,,0.00,Wunderground v.1.15,2014-01-02 17:13:00,
2014-01-02 11:18:00,31.1,24.4,30.22,WNW,301,6.0,9.0,76,0.00,,,0.00,Wunderground v.1.15,2014-01-02 17:18:00,
2014-01-02 11:23:00,31.2,24.8,30.22,NNW,333,1.0,8.0,77,0.00,,,0.00,Wunderground v.1.15,2014-01-02 17:23:00,
2014-01-02 11:28:00,32.0,26.5,30.22,North,10,1.0,8.0,80,0.00,,,0.00,Wunderground v.1.15,2014-01-02 17:28:00,
2014-01-02 11:34:00,32.1,25.4,30.22,NW,318,3.0,5.0,76,0.00,,,0.00,Wunderground v.1.15,2014-01-02 17:34:00,
2014-01-02 11:39:00,31.5,24.8,30.22,NW,305,1.0,9.0,76,0.00,,,0.00,Wunderground v.1.15,2014-01-02 17:39:00,
2014-01-02 11:44:00,31.1,24.7,30.22,NNE,26,1.0,8.0,77,0.00,,,0.00,Wunderground v.1.15,2014-01-02 17:44:00,
2014-01-02 11:49:00,32.0,25.9,30.22,North,349,1.0,8.0,78,0.00,,,0.00,Wunderground v.1.15,2014-01-02 17:49:00,
2014-01-02 11:54:00,32.4,25.7,30.22,NNE,15,1.0,4.0,76,0.00,,,0.00,Wunderground v.1.15,2014-01-02 17:54:00,
2014-01-02 11:59:00,31.9,25.2,30.22,NW,306,4.0,8.0,76,0.00,,,0.00,Wunderground v.1.15,2014-01-02 17:59:00,
2014-01-02 12:04:00,32.2,25.8,30.22,NW,317,4.0,4.0,77,0.00,,,0.00,Wunderground v.1.15,2014-01-02 18:04:00,
2014-01-02 12:09:00,32.0,25.3,30.22,East,92,4.0,5.0,76,0.00,,,0.00,Wunderground v.1.15,2014-01-02 18:09:00,
2014-01-02 12:14:00,31.8,24.8,30.22,NE,47,0.0,5.0,75,0.00,,,0.00,Wunderground v.1.15,2014-01-02 18:14:00,
2014-01-02 12:19:00,31.5,24.8,30.22,NW,307,4.0,5.0,76,0.00,,,0.00,Wunderground v.1.15,2014-01-02 18:19:00,
2014-01-02 12:24:00,31.3,24.6,30.21,North,11,3.0,7.0,76,0.00,,,0.00,Wunderground v.1.15,2014-01-02 18:24:00,
2014-01-02 12:29:00,31.4,25.3,30.22,NNW,327,3.0,10.0,78,0.00,,,0.00,Wunderground v.1.15,2014-01-02 18:29:00,
2014-01-02 12:34:00,31.7,24.7,30.22,NNW,344,3.0,11.0,75,0.00,,,0.00,Wunderground v.1.15,2014-01-02 18:34:00,
2014-01-02 12:39:00,31.8,24.5,30.22,WNW,296,6.0,11.0,74,0.00,,,0.00,Wunderground v.1.15,2014-01-02 18:39:00,
2014-01-02 12:44:00,32.3,24.9,30.22,NNW,346,1.0,5.0,74,0.00,,,0.00,Wunderground v.1.15,2014-01-02 18:44:00,
2014-01-02 12:49:00,32.2,24.8,30.22,North,351,6.0,7.0,74,0.00,,,0.00,Wunderground v.1.15,2014-01-02 18:49:00,
2014-01-02 12:56:00,31.4,24.1,30.22,NNW,346,2.0,6.0,74,0.00,,,0.00,Wunderground v.1.15,2014-01-02 18:56:00,
2014-01-02 13:01:00,31.2,24.5,30.22,NW,304,2.0,3.0,76,0.00,,,0.00,Wunderground v.1.15,2014-01-02 19:01:00,
2014-01-02 13:07:00,31.1,24.1,30.23,NNW,331,5.0,6.0,75,0.00,,,0.00,Wunderground v.1.15,2014-01-02 19:07:00,
2014-01-02 13:12:00,30.9,23.6,30.23,NNW,337,3.0,3.0,74,0.00,,,0.00,Wunderground v.1.15,2014-01-02 19:12:00,
2014-01-02 13:20:00,32.1,25.4,30.23,North,350,5.0,5.0,76,0.00,,,0.00,Wunderground v.1.15,2014-01-02 19:20:00,
2014-01-02 13:25:00,31.7,24.4,30.23,WNW,292,4.0,8.0,74,0.00,,,0.00,Wunderground v.1.15,2014-01-02 19:25:00,
2014-01-02 13:31:00,31.5,24.8,30.23,NNW,338,3.0,3.0,76,0.00,,,0.00,Wunderground v.1.15,2014-01-02 19:31:00,
2014-01-02 13:36:00,31.5,24.5,30.23,NW,319,4.0,6.0,75,0.00,,,0.00,Wunderground v.1.15,2014-01-02 19:36:00,
2014-01-02 13:41:00,31.8,24.1,30.23,NW,308,9.0,11.0,73,0.00,,,0.00,Wunderground v.1.15,2014-01-02 19:41:00,
2014-01-02 13:46:00,31.2,23.5,30.23,NNW,327,4.0,11.0,73,0.00,,,0.00,Wunderground v.1.15,2014-01-02 19:46:00,
2014-01-02 13:51:00,30.9,23.6,30.24,NW,321,4.0,4.0,74,0.00,,,0.00,Wunderground v.1.15,2014-01-02 19:51:00,
2014-01-02 13:57:00,30.9,24.2,30.23,North,355,4.0,4.0,76,0.00,,,0.00,Wunderground v.1.15,2014-01-02 19:57:00,
2014-01-02 14:02:00,30.8,24.1,30.24,NNW,329,2.0,3.0,76,0.00,,,0.00,Wunderground v.1.15,2014-01-02 20:02:00,
2014-01-02 14:09:00,30.4,23.4,30.24,NNW,329,5.0,8.0,75,0.00,,,0.00,Wunderground v.1.15,2014-01-02 20:09:00,
2014-01-02 14:14:00,30.6,23.6,30.24,NW,306,2.0,8.0,75,0.00,,,0.00,Wunderground v.1.15,2014-01-02 20:14:00,
2014-01-02 14:19:00,30.8,23.8,30.24,North,355,4.0,8.0,75,0.00,,,0.00,Wunderground v.1.15,2014-01-02 20:19:00,
2014-01-02 14:24:00,30.7,23.7,30.24,NW,322,1.0,7.0,75,0.00,,,0.00,Wunderground v.1.15,2014-01-02 20:24:00,
2014-01-02 14:29:00,31.0,23.7,30.25,NW,316,5.0,8.0,74,0.00,,,0.00,Wunderground v.1.15,2014-01-02 20:29:00,
2014-01-02 14:34:00,30.7,23.4,30.25,NW,320,3.0,6.0,74,0.00,,,0.00,Wunderground v.1.15,2014-01-02 20:34:00,
2014-01-02 14:39:00,30.8,23.5,30.25,North,355,1.0,6.0,74,0.00,,,0.00,Wunderground v.1.15,2014-01-02 20:39:00,
2014-01-02 14:44:00,31.0,23.7,30.25,NW,311,2.0,5.0,74,0.00,,,0.00,Wunderground v.1.15,2014-01-02 20:44:00,
2014-01-02 14:49:00,31.0,23.7,30.26,NNW,333,4.0,5.0,74,0.00,,,0.00,Wunderground v.1.15,2014-01-02 20:49:00,
2014-01-02 14:54:00,30.8,22.8,30.26,NNW,347,5.0,7.0,72,0.00,,,0.00,Wunderground v.1.15,2014-01-02 20:54:00,
2014-01-02 15:00:00,30.7,23.1,30.26,NNW,331,5.0,7.0,73,0.00,,,0.00,Wunderground v.1.15,2014-01-02 21:00:00,
2014-01-02 15:05:00,30.6,23.0,30.26,NW,317,3.0,5.0,73,0.00,,,0.00,Wunderground v.1.15,2014-01-02 21:05:00,
2014-01-02 15:10:00,30.4,22.4,30.26,NNW,333,7.0,8.0,72,0.00,,,0.00,Wunderground v.1.15,2014-01-02 21:10:00,
2014-01-02 15:15:00,30.4,22.8,30.26,WNW,297,2.0,6.0,73,0.00,,,0.00,Wunderground v.1.15,2014-01-02 21:15:00,
2014-01-02 15:20:00,30.5,22.2,30.26,WNW,295,5.0,6.0,71,0.00,,,0.00,Wunderground v.1.15,2014-01-02 21:20:00,
2014-01-02 15:25:00,30.2,22.3,30.27,NW,310,4.0,8.0,72,0.00,,,0.00,Wunderground v.1.15,2014-01-02 21:25:00,
2014-01-02 15:30:00,30.4,22.4,30.28,NW,317,3.0,8.0,72,0.00,,,0.00,Wunderground v.1.15,2014-01-02 21:30:00,
2014-01-02 15:35:00,30.4,22.4,30.28,NW,307,5.0,9.0,72,0.00,,,0.00,Wunderground v.1.15,2014-01-02 21:35:00,
2014-01-02 15:40:00,30.4,22.1,30.28,NNW,339,0.0,9.0,71,0.00,,,0.00,Wunderground v.1.15,2014-01-02 21:40:00,
2014-01-02 15:46:00,30.3,22.0,30.29,NNW,329,1.0,7.0,71,0.00,,,0.00,Wunderground v.1.15,2014-01-02 21:46:00,
2014-01-02 15:51:00,30.1,21.8,30.29,NNW,331,3.0,3.0,71,0.00,,,0.00,Wunderground v.1.15,2014-01-02 21:51:00,
2014-01-02 15:56:00,30.1,21.8,30.29,WNW,300,1.0,5.0,71,0.00,,,0.00,Wunderground v.1.15,2014-01-02 21:56:00,
2014-01-02 16:02:00,30.3,22.7,30.29,ENE,75,1.0,2.0,73,0.00,,,0.00,Wunderground v.1.15,2014-01-02 22:02:00,
2014-01-02 16:07:00,30.4,21.8,30.29,NNW,327,2.0,9.0,70,0.00,,,0.00,Wunderground v.1.15,2014-01-02 22:07:00,
2014-01-02 16:12:00,30.4,21.8,30.29,NNW,339,1.0,5.0,70,0.00,,,0.00,Wunderground v.1.15,2014-01-02 22:12:00,
2014-01-02 16:17:00,30.3,21.7,30.30,NW,321,5.0,8.0,70,0.00,,,0.00,Wunderground v.1.15,2014-01-02 22:17:00,
2014-01-02 16:22:00,30.2,21.6,30.30,NW,320,2.0,5.0,70,0.00,,,0.00,Wunderground v.1.15,2014-01-02 22:22:00,
2014-01-02 16:27:00,30.2,21.6,30.30,WNW,303,2.0,6.0,70,0.00,,,0.00,Wunderground v.1.15,2014-01-02 22:27:00,
2014-01-02 16:32:00,30.1,21.8,30.31,NW,317,3.0,5.0,71,0.00,,,0.00,Wunderground v.1.15,2014-01-02 22:32:00,
2014-01-02 16:37:00,29.9,21.3,30.31,NNW,327,1.0,6.0,70,0.00,,,0.00,Wunderground v.1.15,2014-01-02 22:37:00,
2014-01-02 16:42:00,29.8,21.2,30.31,NNW,329,1.0,2.0,70,0.00,,,0.00,Wunderground v.1.15,2014-01-02 22:42:00,
2014-01-02 16:47:00,29.8,21.2,30.32,NNW,333,1.0,5.0,70,0.00,,,0.00,Wunderground v.1.15,2014-01-02 22:47:00,
2014-01-02 16:53:00,29.7,21.4,30.31,NW,319,2.0,2.0,71,0.00,,,0.00,Wunderground v.1.15,2014-01-02 22:53:00,
2014-01-02 16:58:00,29.7,21.4,30.30,North,360,0.0,3.0,71,0.00,,,0.00,Wunderground v.1.15,2014-01-02 22:58:00,
2014-01-02 17:03:00,29.7,21.8,30.30,North,360,0.0,1.0,72,0.00,,,0.00,Wunderground v.1.15,2014-01-02 23:03:00,
2014-01-02 17:08:00,29.7,22.1,30.31,North,360,0.0,2.0,73,0.00,,,0.00,Wunderground v.1.15,2014-01-02 23:08:00,
2014-01-02 17:13:00,29.7,21.4,30.31,North,360,1.0,3.0,71,0.00,,,0.00,Wunderground v.1.15,2014-01-02 23:13:00,
2014-01-02 17:18:00,29.7,21.4,30.31,North,360,0.0,3.0,71,0.00,,,0.00,Wunderground v.1.15,2014-01-02 23:18:00,
2014-01-02 17:23:00,29.6,21.3,30.31,NNE,17,2.0,7.0,71,0.00,,,0.00,Wunderground v.1.15,2014-01-02 23:23:00,
2014-01-02 17:31:00,29.6,21.0,30.31,NNE,17,0.0,1.0,70,0.00,,,0.00,Wunderground v.1.15,2014-01-02 23:31:00,
2014-01-02 17:36:00,29.5,20.9,30.32,NNW,345,0.0,5.0,70,0.00,,,0.00,Wunderground v.1.15,2014-01-02 23:36:00,
2014-01-02 17:41:00,29.5,20.9,30.32,NW,305,0.0,1.0,70,0.00,,,0.00,Wunderground v.1.15,2014-01-02 23:41:00,
2014-01-02 17:46:00,29.4,20.8,30.32,NNW,344,1.0,3.0,70,0.00,,,0.00,Wunderground v.1.15,2014-01-02 23:46:00,
2014-01-02 17:51:00,29.4,20.8,30.32,NNW,343,1.0,3.0,70,0.00,,,0.00,Wunderground v.1.15,2014-01-02 23:51:00,
2014-01-02 17:56:00,29.2,19.9,30.32,NW,319,1.0,6.0,68,0.00,,,0.00,Wunderground v.1.15,2014-01-02 23:56:00,
2014-01-02 18:01:00,29.1,20.5,30.33,NNE,15,1.0,1.0,70,0.00,,,0.00,Wunderground v.1.15,2014-01-03 00:01:00,
2014-01-02 18:06:00,28.9,20.0,30.33,NNE,15,1.0,3.0,69,0.00,,,0.00,Wunderground v.1.15,2014-01-03 00:06:00,
2014-01-02 18:11:00,28.6,20.4,30.33,North,355,1.0,2.0,71,0.00,,,0.00,Wunderground v.1.15,2014-01-03 00:11:00,
2014-01-02 18:16:00,28.5,19.6,30.34,NW,322,1.0,4.0,69,0.00,,,0.00,Wunderground v.1.15,2014-01-03 00:16:00,
2014-01-02 18:21:00,28.5,19.6,30.34,NW,325,0.0,1.0,69,0.00,,,0.00,Wunderground v.1.15,2014-01-03 00:21:00,
2014-01-02 18:27:00,28.3,19.4,30.34,NW,318,0.0,3.0,69,0.00,,,0.00,Wunderground v.1.15,2014-01-03 00:27:00,
2014-01-02 18:34:00,28.0,19.5,30.35,NNW,339,0.0,0.0,70,0.00,,,0.00,Wunderground v.1.15,2014-01-03 00:34:00,
2014-01-02 18:39:00,28.0,19.1,30.35,NNW,339,0.0,0.0,69,0.00,,,0.00,Wunderground v.1.15,2014-01-03 00:39:00,
2014-01-02 18:45:00,27.8,19.3,30.35,NNW,339,0.0,2.0,70,0.00,,,0.00,Wunderground v.1.15,2014-01-03 00:45:00,
2014-01-02 18:50:00,27.7,19.5,30.36,NNW,339,0.0,0.0,71,0.00,,,0.00,Wunderground v.1.15,2014-01-03 00:50:00,
2014-01-02 18:55:00,27.7,19.2,30.36,NNW,328,2.0,5.0,70,0.00,,,0.00,Wunderground v.1.15,2014-01-03 00:55:00,
2014-01-02 19:00:00,27.7,19.5,30.37,North,5,2.0,2.0,71,0.00,,,0.00,Wunderground v.1.15,2014-01-03 01:00:00,
2014-01-02 19:05:00,27.6,19.1,30.37,North,351,2.0,4.0,70,0.00,,,0.00,Wunderground v.1.15,2014-01-03 01:05:00,
2014-01-02 19:10:00,27.6,19.1,30.38,NE,47,0.0,1.0,70,0.00,,,0.00,Wunderground v.1.15,2014-01-03 01:10:00,
2014-01-02 19:15:00,27.5,19.0,30.38,NNE,30,1.0,2.0,70,0.00,,,0.00,Wunderground v.1.15,2014-01-03 01:15:00,
2014-01-02 19:20:00,27.4,18.9,30.38,NNW,346,0.0,1.0,70,0.00,,,0.00,Wunderground v.1.15,2014-01-03 01:20:00,
2014-01-02 19:25:00,27.2,19.0,30.38,NW,325,0.0,3.0,71,0.00,,,0.00,Wunderground v.1.15,2014-01-03 01:25:00,
2014-01-02 19:30:00,27.1,18.9,30.38,NW,325,0.0,0.0,71,0.00,,,0.00,Wunderground v.1.15,2014-01-03 01:30:00,
2014-01-02 19:36:00,26.9,18.7,30.39,NW,325,0.0,1.0,71,0.00,,,0.00,Wunderground v.1.15,2014-01-03 01:36:00,
2014-01-02 19:41:00,26.8,19.0,30.39,NNW,327,0.0,0.0,72,0.00,,,0.00,Wunderground v.1.15,2014-01-03 01:41:00,
2014-01-02 19:46:00,26.6,18.8,30.39,NW,311,0.0,2.0,72,0.00,,,0.00,Wunderground v.1.15,2014-01-03 01:46:00,
2014-01-02 19:51:00,26.5,18.7,30.39,NW,326,0.0,0.0,72,0.00,,,0.00,Wunderground v.1.15,2014-01-03 01:51:00,
2014-01-02 19:56:00,26.5,19.0,30.39,NNW,328,2.0,2.0,73,0.00,,,0.00,Wunderground v.1.15,2014-01-03 01:56:00,
2014-01-02 20:01:00,26.3,18.2,30.39,NW,304,0.0,2.0,71,0.00,,,0.00,Wunderground v.1.15,2014-01-03 02:01:00,
2014-01-02 20:06:00,26.3,18.2,30.39,NW,304,0.0,2.0,71,0.00,,,0.00,Wunderground v.1.15,2014-01-03 02:06:00,
2014-01-02 20:11:00,26.3,18.2,30.39,NW,304,0.0,0.0,71,0.00,,,0.00,Wunderground v.1.15,2014-01-03 02:11:00,
2014-01-02 20:19:00,26.1,18.3,30.40,NW,304,0.0,0.0,72,0.00,,,0.00,Wunderground v.1.15,2014-01-03 02:19:00,
2014-01-02 20:24:00,26.1,18.3,30.40,NNW,337,2.0,5.0,72,0.00,,,0.00,Wunderground v.1.15,2014-01-03 02:24:00,
2014-01-02 20:29:00,26.1,18.3,30.41,NW,326,0.0,5.0,72,0.00,,,0.00,Wunderground v.1.15,2014-01-03 02:29:00,
2014-01-02 20:34:00,26.2,18.4,30.41,NNE,30,1.0,6.0,72,0.00,,,0.00,Wunderground v.1.15,2014-01-03 02:34:00,
2014-01-02 20:39:00,26.1,18.0,30.41,NNE,21,2.0,6.0,71,0.00,,,0.00,Wunderground v.1.15,2014-01-03 02:39:00,
2014-01-02 20:44:00,26.1,18.0,30.41,NNW,327,0.0,4.0,71,0.00,,,0.00,Wunderground v.1.15,2014-01-03 02:44:00,
2014-01-02 20:50:00,26.1,17.6,30.41,NNW,328,0.0,1.0,70,0.00,,,0.00,Wunderground v.1.15,2014-01-03 02:50:00,
2014-01-02 20:55:00,26.1,17.3,30.41,North,5,0.0,3.0,69,0.00,,,0.00,Wunderground v.1.15,2014-01-03 02:55:00,
2014-01-02 21:00:00,26.0,17.2,30.42,NNW,348,0.0,1.0,69,0.00,,,0.00,Wunderground v.1.15,2014-01-03 03:00:00,
2014-01-02 21:05:00,25.8,17.4,30.42,NNW,333,0.0,2.0,70,0.00,,,0.00,Wunderground v.1.15,2014-01-03 03:05:00,
2014-01-02 21:10:00,25.7,17.3,30.43,NNW,333,1.0,1.0,70,0.00,,,0.00,Wunderground v.1.15,2014-01-03 03:10:00,
2014-01-02 21:15:00,25.6,17.2,30.43,NNW,344,0.0,2.0,70,0.00,,,0.00,Wunderground v.1.15,2014-01-03 03:15:00,
2014-01-02 21:20:00,25.6,17.8,30.43,NNW,344,0.0,0.0,72,0.00,,,0.00,Wunderground v.1.15,2014-01-03 03:20:00,
2014-01-02 21:25:00,25.4,17.6,30.43,NNW,344,0.0,1.0,72,0.00,,,0.00,Wunderground v.1.15,2014-01-03 03:25:00,
2014-01-02 21:30:00,25.3,17.9,30.43,ENE,67,1.0,2.0,73,0.00,,,0.00,Wunderground v.1.15,2014-01-03 03:30:00,
2014-01-02 21:35:00,25.0,17.9,30.44,ENE,67,1.0,2.0,74,0.00,,,0.00,Wunderground v.1.15,2014-01-03 03:35:00,
2014-01-02 21:41:00,24.8,17.1,30.44,ENE,67,0.0,1.0,72,0.00,,,0.00,Wunderground v.1.15,2014-01-03 03:41:00,
2014-01-02 21:46:00,24.8,17.4,30.44,ENE,67,0.0,1.0,73,0.00,,,0.00,Wunderground v.1.15,2014-01-03 03:46:00,
2014-01-02 21:51:00,24.7,17.3,30.44,ENE,67,0.0,0.0,73,0.00,,,0.00,Wunderground v.1.15,2014-01-03 03:51:00,
2014-01-02 21:56:00,24.5,17.1,30.44,ENE,61,0.0,2.0,73,0.00,,,0.00,Wunderground v.1.15,2014-01-03 03:56:00,
2014-01-02 22:01:00,24.4,17.0,30.44,ENE,61,0.0,1.0,73,0.00,,,0.00,Wunderground v.1.15,2014-01-03 04:01:00,
2014-01-02 22:06:00,24.2,17.1,30.44,ENE,61,0.0,1.0,74,0.00,,,0.00,Wunderground v.1.15,2014-01-03 04:06:00,
2014-01-02 22:11:00,24.1,17.0,30.44,ENE,61,0.0,0.0,74,0.00,,,0.00,Wunderground v.1.15,2014-01-03 04:11:00,
2014-01-02 22:16:00,24.0,16.9,30.45,ENE,61,0.0,0.0,74,0.00,,,0.00,Wunderground v.1.15,2014-01-03 04:16:00,
2014-01-02 22:21:00,23.8,17.0,30.45,ENE,61,0.0,0.0,75,0.00,,,0.00,Wunderground v.1.15,2014-01-03 04:21:00,
2014-01-02 22:26:00,23.7,17.2,30.45,ENE,61,0.0,0.0,76,0.00,,,0.00,Wunderground v.1.15,2014-01-03 04:26:00,
2014-01-02 22:31:00,23.5,16.7,30.45,ENE,61,0.0,0.0,75,0.00,,,0.00,Wunderground v.1.15,2014-01-03 04:31:00,
2014-01-02 22:36:00,23.3,16.5,30.45,ENE,61,0.0,0.0,75,0.00,,,0.00,Wunderground v.1.15,2014-01-03 04:36:00,
2014-01-02 22:41:00,23.2,16.4,30.45,ENE,61,0.0,0.0,75,0.00,,,0.00,Wunderground v.1.15,2014-01-03 04:41:00,
2014-01-02 22:47:00,23.0,16.6,30.46,ENE,61,0.0,1.0,76,0.00,,,0.00,Wunderground v.1.15,2014-01-03 04:47:00,
2014-01-02 22:52:00,22.9,16.8,30.46,ENE,61,0.0,0.0,77,0.00,,,0.00,Wunderground v.1.15,2014-01-03 04:52:00,
2014-01-02 22:57:00,22.8,16.7,30.46,ENE,61,0.0,0.0,77,0.00,,,0.00,Wunderground v.1.15,2014-01-03 04:57:00,
2014-01-02 23:01:00,22.7,16.9,30.46,ENE,61,0.0,0.0,78,0.00,,,0.00,Wunderground v.1.15,2014-01-03 05:01:00,
2014-01-02 23:06:00,22.5,16.7,30.46,ENE,61,0.0,0.0,78,0.00,,,0.00,Wunderground v.1.15,2014-01-03 05:06:00,
2014-01-02 23:11:00,22.5,16.7,30.46,ENE,61,0.0,0.0,78,0.00,,,0.00,Wunderground v.1.15,2014-01-03 05:11:00,
2014-01-02 23:16:00,22.4,16.3,30.46,ENE,61,0.0,1.0,77,0.00,,,0.00,Wunderground v.1.15,2014-01-03 05:16:00,
2014-01-02 23:22:00,22.4,16.3,30.46,ENE,61,0.0,0.0,77,0.00,,,0.00,Wunderground v.1.15,2014-01-03 05:22:00,
2014-01-02 23:27:00,22.3,15.9,30.46,ENE,61,0.0,0.0,76,0.00,,,0.00,Wunderground v.1.15,2014-01-03 05:27:00,
2014-01-02 23:32:00,22.2,16.1,30.46,ENE,61,0.0,0.0,77,0.00,,,0.00,Wunderground v.1.15,2014-01-03 05:32:00,
2014-01-02 23:37:00,22.1,16.0,30.46,ENE,61,0.0,0.0,77,0.00,,,0.00,Wunderground v.1.15,2014-01-03 05:37:00,
2014-01-02 23:42:00,22.0,16.2,30.46,ENE,61,0.0,0.0,78,0.00,,,0.00,Wunderground v.1.15,2014-01-03 05:42:00,
2014-01-02 23:47:00,21.8,16.0,30.47,ENE,61,0.0,0.0,78,0.00,,,0.00,Wunderground v.1.15,2014-01-03 05:47:00,
2014-01-02 23:52:00,21.7,16.2,30.47,ENE,61,0.0,0.0,79,0.00,,,0.00,Wunderground v.1.15,2014-01-03 05:52:00,
2014-01-02 23:57:00,21.6,15.8,30.47,ENE,61,0.0,0.0,78,0.00,,,0.00,Wunderground v.1.15,2014-01-03 05:57:00,